Location: Newark
(17.9939°S, 31.0481°E)
Time: 05:03:46
(UTC+00:00)

Explorer 7 - Visible Passes

Search period start: 22 November 2019 00:00
Search period end: 02 December 2019 00:00
Orbit: 485 x 680 km, 50.3° (Epoch: 21 November)

Date Brightness Start Highest point End Pass type
(mag) Time Alt. Az. Time Alt. Az. Time Alt. Az.
22 Nov 7.3 16:33:45 10° SW 16:38:33 84° NW 16:43:28 10° NE visible
23 Nov 8.3 16:38:54 10° WSW 16:43:27 43° NW 16:48:04 10° NNE visible
24 Nov 9.3 16:44:33 10° WSW 16:48:18 23° NW 16:52:07 10° N visible
25 Nov 9.9 16:51:25 10° WNW 16:53:08 12° NW 16:54:52 10° NW visible
